User: anonymous   Login
Location: Erdweis
(48.5167°N, 15.3500°E)
Time: 15:18:17
(UTC+00:00)
Language:

CZ-2C R/B - Orbit

View from above orbital plane
View from above orbital plane
View from above satellite
View from above satellite

Ground track
Ground track

The orbit data is extracted from the following two-line orbital elements,

1 31114U 07010B   20340.11681061  .00000031  00000-0  32514-4 0  9994
2 31114  98.2403 181.3730 0060594 128.9286 231.7315 14.19339448707238
Epoch (UTC): 05 December 2020 02:48:12
Eccentricity: 0.0060594
inclination: 98.2403°
perigee height: 784 km
apogee height: 871 km
right ascension of ascending node: 181.3730°
argument of perigee: 128.9286°
revolutions per day: 14.19339448
mean anomaly at epoch: 231.7315°
orbit number at epoch: 70723

The dashed part of the orbit path shows where the satellite is in the earth's shadow,  

DLR